Starlink 6047

operational
NORAD ID: 56460 Int'l Des: 2023-064 Owner: SPXS Country: US Constellation: starlink
LEOCIRCULAR

About Starlink 6047

Description loading...

Live Position

Loading 3D Globe...

Upcoming Passes

Altitude History

Altitude vs Time

uPlot chart will show altitude changes over time

Two-Line Element Set

1 56460U 23064N 25303.21523154 .00000921 00000-0 84946-4 0 9999
2 56460 69.9992 113.3749 0002831 274.9532 85.1304 14.98340071135705
Epoch: Oct 30, 2025 • Age: 20 hours

Current Status

Altitude 580.0 km
Velocity 7.57 km/s
Sub-Earth Point 45.95°N, 144.85°W
Launch Date May 10, 2023
Age 2.4 years
Type internet

Technical Details

Classification Payload
Mass 305.00 kg
Dry Mass 290.00 kg
Total Mass 305.00 kg
Length 0.20 m
Diameter 2.80 m
Span 9.00 m
Shape Box + pan
Manufacturer SPXS
Bus Type Starlink
Phase Status In Orbit
Owner/State SPXS/US

Large Constellations

Loading constellations...